Location: Rowland
(34.5359°N, 79.2929°W)
Time: 19:58:50
(UTC+00:00)

Vanguard 2 - Pass Details

Date: 06 October 2022
Orbit: 553 x 2933 km, 32.9° (Epoch: 06 December)

Event Time Altitude Azimuth Distance (km) Brightness Sun altitude
Rises 02:06:02 0° 272° (W) 6,766 13.1 -39.2°
Reaches altitude 10° 02:15:23 10° 247° (WSW) 5,703 12.3 -40.9°
Maximum altitude 02:20:31 12° 230° (SW) 5,391 12.0 -41.9°
Drops below altitude 10° 02:25:24 10° 212° (SSW) 5,344 11.8 -42.7°
Enters shadow 02:31:20 - 191° (S) 5,643 11.8 -43.8°
